DELTA 1 R/B, 3036

Orbit data source: Space-Track

DELTA 1 R/B, 3036 is space debris in SSO originally from a launch on Fri, 10 Nov 1967 UTC launched from the Air Force Western Test Range (AFWTR). Debris objects in space refer to the collection of defunct objects orbiting the Earth. Examples of debris include non-operational satellites, rocket bodies, and fragments generated from explosions, collisions, or faulty payload assembly.

Loading next visibility...
Identifier
3036, 1967-114B
Orbit
SSO
Country
Flag of USUS
Related business
Manufacturer
UTC
Mission
Spacecraft
Bus & Motor
FW4, Unknown motor
Mass
~40 kg wet, ~40 kg dry
Launch date (UTC)
1967-11-10 (59 years ago)
Launch vehicle
Unknown
Launch site
Air Force Western Test Range (AFWTR)
Object type
Payload
Rocket body
Debris
Shape & HBR
Unknown
Radar Cross Section
Medium (>0.1 m² and <1 m²)

Expand to show TLE details & history
Last TLE update: 7 hours ago

TLE from 7 hours ago
0 DELTA 1 R/B
1  3036U 67114B   26163.84512735 -.00000050  00000-0 -20242-4 0  9995
2  3036 102.0120 264.9041 0048393 146.8593 327.7357 12.54139411681807
Epoch: 2026-06-12T20:16Z
TLE epoch observation values (Epoch: 2026-06-12T20:16:59.003Z)
Latitude
63.1462°
Longitude
-95.79149°
Altitude
1,425.921 km
Speed
7.168 km/s
True Right ascension
07h 18m 29s
True Declination
63° 01' 09"
Sunlit
Object was in daylight at epoch
Visualization orbit readout
Latitude
Unknown
Longitude
Unknown
Altitude
Unknown
Speed
Unknown
Apparent Right ascension
Unknown
Apparent Declination
Unknown
Sunlit
N/A
Visualization observer readout
Local Sidereal Time
14:03:57
Azimuth
Unknown
Elevation
Unknown
Doppler factor
Unknown
Orbital elements
Apogee altitude
1,482.643 km
Perigee altitude
1,406.928 km
Semi-major axis
7,822.922 km
Eccentricity
0.00484
Inclination
102.012°
RAAN
264.9041°
Arg. of periapsis
146.8593°
True anomaly
327.43815°
Mean anomaly
327.7357°
Eccentric anomaly
327.58708°
Mean motion
3.13682 °/min
Orbital period
114.77 mins
BSTAR
-0.000020242
Loading maneuver chart data...
Computing Atmospheric mass density...
Loading historical data...
Loading historical data...
Loading historical data...
Loading historical data...
Loading historical data...
Loading historical data...
Loading historical data...
Other satellites on launch #114 in the year 1967 (1967-11-10 UTC)

Documentation

Showing up to 5 results
|